Regional Weather Roundup
Issued by NWS

Home | Current Version | Previous Version | Graphics & Text | Print | Product List | Glossary On
Versions: 1 2 3 4 5 6 7 8 9 10 11 12 13 14 15 16 17 18 19 20 21 22 23 24 25 26 27 28 29 30 31 32 33 34 35 36 37 38 39 40 41 42 43 44 45 46 47 48 49 50
261
ASUS43 KMPX 222310
RWRMN
WEATHER ROUNDUP FOR MINNESOTA
NATIONAL WEATHER SERVICE TWIN CITIES/CHANHASSEN MN
600 PM CDT WED MAR 22 2017


NOTE: "FAIR" INDICATES FEW OR NO CLOUDS BELOW 12,000 FEET WITH NO
SIGNIFICANT WEATHER AND/OR OBSTRUCTIONS TO VISIBILITY. N/A MEANS
CURRENT SKY AND/OR WEATHER CONDITIONS ARE NOT AVAILABLE.

MNZ060>063-068>070-230000-
   Twin Cities Metro

CITY           SKY/WX    TMP DP  RH WIND       PRES   REMARKS
TWIN CITIES    CLOUDY    39  12  33 SE14      30.37F
ST PAUL        CLOUDY    39  13  34 S13       30.39F
CRYSTAL        CLOUDY    38  11  32 SE14G20   30.35F
BLAINE         PTSUNNY   39  12  33 SE10G17   30.37F
LAKEVILLE      CLOUDY    36  18  48 S12G17    30.37F
EDEN PRAIRIE   CLOUDY    39  15  37 S17       30.35F
SOUTH ST PAUL  PTSUNNY   39  11  31 S9        30.38F
LAKE ELMO      PTSUNNY   37  14  38 SE9       30.39F
$$
MNZ001>005-007-008-013>017-022>024-027-028-230000-
   Northwest Minnesota

CITY           SKY/WX    TMP DP  RH WIND       PRES   REMARKS
BEMIDJI        CLOUDY    33   9  36 SE15      30.23F WCI  23
HALLOCK        FLURRIES  30  21  69 S20G26    30.17F WCI  18
ROSEAU         CLOUDY    34  16  47 SE15      30.21F WCI  24
WARROAD        CLOUDY    32  12  43 SE13      30.22F WCI  22
THIEF RVR FALL   N/A    N/A N/A N/A MISG        N/A
CROOKSTON      LGT SNOW  30  21  69 S26G35    30.18F WCI  16
FOSSTON        CLOUDY    32  12  43 SE9G20    30.20F WCI  24
DETROIT LAKES  PTSUNNY   32  14  47 S22G29    30.22F WCI  19
MOORHEAD       CLOUDY    32  18  55 SE25G32   30.19F WCI  19
PARK RAPIDS    CLOUDY    33  10  38 SE16      30.24F WCI  23
MAHNOMEN       CLOUDY    30  19  64 S14G23    30.20F WCI  20
$$
MNZ006-009>011-018-025>026-230000-
   North Central Minnesota

CITY           SKY/WX    TMP DP  RH WIND       PRES   REMARKS
BAUDETTE       CLOUDY    34   8  33 S9        30.23F WCI  27
FLAG ISLAND    CLOUDY    30  16  55 SE14      30.22F WCI  20
INTL FALLS     CLOUDY    34   8  33 S7        30.28F WCI  28
WASKISH        CLOUDY    34   7  32 S10G16    30.25F WCI  26
BIG FORK       CLOUDY    36   7  30 S8        30.28F
LONGVILLE      CLOUDY    34   9  35 SE7       30.28F WCI  28
GRAND RAPIDS   MOSUNNY   34   7  32 SE12      30.31F WCI  25
CRANE LAKE     SUNNY     34   5  29 SE3       30.34F
ORR            SUNNY     34   1  25 SE3       30.28F
COOK           CLOUDY    34   7  32 S10G16    30.31F WCI  26
WALKER         CLOUDY    34   8  33 S9G18     30.26F WCI  26
$$
MNZ012-019>021-037-230000-
   Northeast Minnesota

CITY           SKY/WX    TMP DP  RH WIND       PRES   REMARKS
DULUTH         CLOUDY    29  16  58 E10       30.35F WCI  20
ELY            PTSUNNY   32   3  29 S12       30.33F WCI  23
HIBBING        CLOUDY    34   5  29 S9        30.31F WCI  27
EVELETH        CLOUDY    36  -1  21 S7        30.33F
DULUTH HARBOR  CLOUDY    30  21  69 E12       30.41F WCI  21
TWO HARBORS    SUNNY     30  19  64 E8        30.37F WCI  23
SILVER BAY     SUNNY     27  18  69 E7        30.38F WCI  19
GRAND MARAIS     N/A     26  13  57 VRB3      30.46F
G MARAIS ARPRT PTSUNNY   21   7  53 S6        30.38F WCI  14
$$
MNZ029>031-032-039>041-046>048-054>057-064-230000-
   West Central Minnesota

CITY           SKY/WX    TMP DP  RH WIND       PRES   REMARKS
FERGUS FALLS   CLOUDY    32  21  64 SE17G28   30.25F WCI  21
WHEATON        CLOUDY    34  25  69 SE26G33   30.20F WCI  21
MORRIS         MIX PCPN  34  23  64 SE22G30   30.22F WCI  22
ALEXANDRIA     CLOUDY    33  19  56 S22G31    30.26F WCI  21
ELBOW LAKE     CLOUDY    32  22  69 E24G30    30.23F WCI  18
WADENA         CLOUDY    30  12  47 SE20      30.25F WCI  18
GLENWOOD       MOSUNNY   34  21  60 SE18      30.27F WCI  23
APPLETON       CLOUDY    36  25  64 SE15G22   30.23F
BENSON         CLOUDY    37  19  48 S17G24    30.28F
ORTONVILLE     CLOUDY    34  25  69 SE22G30   30.20F WCI  22
MADISON        CLOUDY    36  28  75 SE22G28   30.22F
WILLMAR        CLOUDY    36  25  64 SE15G24   30.31S
$$
MNZ033>034-036-042>043-049>051-058-059-230000-
   Central Minnesota

CITY           SKY/WX    TMP DP  RH WIND       PRES   REMARKS
ST CLOUD       CLOUDY    36  14  40 S13       30.32F
SAUK CENTRE    CLOUDY    33  19  56 SE15G22   30.29F WCI  23
PAYNESVILLE      N/A     34  19  54 SE12G18   30.31F WCI  25
AITKIN         CLOUDY    37   1  22 S9G21     30.30F
PINE RIVER     CLOUDY    34  12  40 SE15G22   30.31F WCI  24
BRAINERD       CLOUDY    35   7  31 S13       30.30F WCI  26
STAPLES        CLOUDY    32   7  34 SE13G21   30.28F WCI  22
LONG PRAIRIE   CLOUDY    32  18  55 E17G24    30.29F WCI  21
LITTLE FALLS   CLOUDY    34   9  35 S14       30.32F WCI  24
LITCHFIELD     CLOUDY    36  21  55 SE13G20   30.33F
BUFFALO        CLOUDY    37  14  39 SE12G18   30.35F
MAPLE LAKE     CLOUDY    37  20  49 SE12G17   30.34F
HUTCHINSON     CLOUDY    37  23  58 SE14G21   30.34F
$$
MNZ037-044-045-052-053-230000-
   East Central Minnesota

CITY           SKY/WX    TMP DP  RH WIND       PRES   REMARKS
PRINCETON      CLOUDY    39   9  28 SE13      30.35F
MORA           MOSUNNY   36   9  32 S13       30.37F
CAMBRIDGE      PTSUNNY   39  18  41 SE10G16   30.34F
RUSH CITY      CLOUDY    37  10  33 S13       30.37F
MOOSE LAKE     SUNNY     36   9  32 S9        30.33F
HINCKLEY       MOCLDY    37  12  35 S10       30.36F
CLOQUET        SUNNY     34  10  37 E7        30.34F WCI  28
MCGREGOR       CLOUDY    37   9  30 S12G18    30.32F
$$
MNZ071>073-080-081-089-090-097-098-230000-
   Southwest Minnesota

CITY           SKY/WX    TMP DP  RH WIND       PRES   REMARKS
MONTEVIDEO     CLOUDY    34  25  69 S18G24    30.27F WCI  23
GRANITE FALLS  CLOUDY    36  27  71 SE17      30.28F
CANBY          CLOUDY    35  28  78 E17       30.22F WCI  24
MARSHALL       CLOUDY    34  26  72 SE24      30.23F WCI  21
REDWOOD FALLS  CLOUDY    35  23  61 SE17      30.29F WCI  25
OLIVIA         CLOUDY    36  25  64 SE14G21   30.29F
PIPESTONE      CLOUDY    34  25  69 SE16G24   30.18F WCI  23
WINDOM         CLOUDY    34  25  69 SE12G18   30.28F WCI  25
WORTHINGTON    CLOUDY    33  25  72 SE18G25   30.24F WCI  22
JACKSON        CLOUDY    34  27  75 SE15      30.28F WCI  24
TRACY          CLOUDY    34  28  77 SE15      30.25F WCI  24
SLAYTON        CLOUDY    32  27  83 SE18G24   30.23F WCI  20
$$
MNZ065>067-074>077-082>085-091>093-230000-
   South Central Minnesota

CITY           SKY/WX    TMP DP  RH WIND       PRES   REMARKS
MANKATO        CLOUDY    37  21  52 S17       30.34F
NEW ULM        CLOUDY    36  21  55 SE13      30.32F
ST JAMES       CLOUDY    36  27  69 SE12      30.34F
FAIRMONT       CLOUDY    36  24  62 SE16      30.32F
GLENCOE        CLOUDY    37  24  58 SE12      30.33F
FARIBAULT      CLOUDY    37  19  48 SE13      30.37F
OWATONNA       CLOUDY    37  18  44 SE12      30.36F
WASECA         CLOUDY    36  23  60 SE13      30.36F
ALBERT LEA     CLOUDY    37  18  44 SE14      30.34F
$$
MNZ078>079-086>088-094>096-230000-
   Southeast Minnesota

CITY           SKY/WX    TMP DP  RH WIND       PRES   REMARKS
ROCHESTER      CLOUDY    36  15  42 SE14      30.38F
RED WING       MOSUNNY   39   7  26 S9        30.40S
STANTON        CLOUDY    38  16  39 S8        30.37F
DODGE CENTER   MOSUNNY   36  19  51 SE13      30.37F
WINONA         CLOUDY    41  10  28 SE9       30.43F
AUSTIN         CLOUDY    37  16  41 SE10      30.36F
PRESTON        CLOUDY    37  11  33 SE9       30.39F
$$
ABBREVIATIONS USED IN REMARKS
   TC - TEMPERATURES IN CELSIUS
  WCI - WIND CHILL INDEX
   HX - HEAT INDEX
  VSB - VISIBILITY
$$




USA.gov is the U.S. government's official web portal to all federal, state and local government web resources and services.